Location: Hains Lake
(37.8540°N, 99.8578°W)
Time: 04:29:54
(UTC+00:00)

Tiros 1 despin weight - Pass Details

Date: 19 April 2021
Orbit: 593 x 642 km, 48.2° (Epoch: 07 May)

Event Time Altitude Azimuth Distance (km) Brightness Sun altitude
Rises 09:54:08 0° 183° (S) 2,913 - -22.9°
Exits shadow 09:57:43 10° 155° (SSE) 2,007 ? -22.3°
Reaches altitude 10° 09:57:45 10° 154° (SSE) 2,001 ? -22.3°
Maximum altitude 09:59:40 12° 130° (SE) 1,837 ? -22.0°
Drops below altitude 10° 10:01:35 10° 105° (ESE) 1,994 ? -21.7°
Sets 10:05:10 0° 76° (ENE) 2,893 ? -21.1°
